Flag for Germany Weather past 2 weeks in Meissen, Saxony, Germany

36 °F


Feels Like: 26 °F
Forecast: 42 / 49 °F
Wind: 15 mph from Southwest

Location: Dresden-Klotzsche

Current Time: Nov 29, 2015 at 1:25:52 AM

Latest Report: Nov 29, 2015 at 12:20 AM

Visibility: 10 mi

Pressure: 29.95 "Hg

Humidity: 81%

Dew point: 30 °F

Location of MeissenLocation

Historic Weather in Meissen — Graph


Meissen temperature yesterday

Maximum temperature yesterday: 37 °F (at 5:20 PM)
Minimum temperature yesterday: 25 °F (at 3:50 AM)
Average temperature yesterday: 32 °F

Past Weeks' High & Low Weather Summary

High59 °F (Nov 18, 1:50 AM)100% (Nov 14, 10:20 PM)30.24 "Hg (Nov 14, 10:20 PM)
Low25 °F (Nov 28, 3:50 AM)55% (Nov 18, 11:50 AM)29.36 "Hg (Nov 21, 12:20 PM)
Average42 °F84%29.85 "Hg
* Reported Nov 13 11:20 PM — Nov 28 11:50 PM, Meissen, Weather by CustomWeather, © 2015

Note: Actual official high and low records may vary slightly from our data, if they occured in-between our weather recording intervals... More about our weather records


Meissen weather history for previous 24 hours

Time TempWeatherWind HumidityBarometerVisibility
11:50 PM
Sat, Nov 28
36 °FClear.10 mph81%29.98 "Hg10 mi
10:50 PM36 °FClear.9 mph81%29.98 "Hg10 mi
10:20 PM36 °FClear.10 mph81%29.98 "Hg10 mi
9:20 PM36 °FClear.9 mph87%29.98 "Hg10 mi
8:50 PM36 °FClear.10 mph87%29.98 "Hg10 mi
8:20 PM36 °FClear.10 mph87%29.95 "Hg10 mi
7:50 PM36 °FClear.10 mph87%29.95 "Hg10 mi
7:20 PM37 °FClear.10 mph87%29.95 "Hg10 mi
6:50 PM37 °FPassing clouds.10 mph87%29.92 "HgN/A
6:20 PM37 °FPassing clouds.13 mph87%29.92 "HgN/A
5:50 PM37 °FPassing clouds.14 mph93%29.92 "HgN/A
5:20 PM37 °FLight rain. Passing clouds.13 mph93%29.89 "HgN/A
4:50 PM36 °FLight rain. Passing clouds.12 mph100%29.89 "HgN/A
4:20 PM36 °FLight rain. Passing clouds.13 mph93%29.86 "Hg5 mi
3:50 PM36 °FLight rain. Partly sunny.12 mph93%29.86 "Hg5 mi
3:20 PM34 °FLight rain. Fog.12 mph100%29.83 "Hg3 mi
2:50 PM34 °FLight rain. Partly sunny.10 mph100%29.80 "Hg4 mi
2:20 PM34 °FRain. Fog.10 mph93%29.80 "Hg2 mi
1:50 PM34 °FSnow. Fog.13 mph93%29.77 "Hg1 mi
1:20 PM34 °FSnow. Fog.12 mph93%29.77 "Hg1 mi
12:50 PM34 °FLight snow. More clouds than sun.14 mph93%29.77 "Hg3 mi
12:20 PM34 °FLight rain. Partly sunny.12 mph93%29.77 "Hg4 mi
11:50 AM34 °FLight snow. Partly sunny.13 mph93%29.77 "Hg4 mi
11:20 AM36 °FSnow flurries. Partly sunny.10 mph75%29.74 "HgN/A
10:50 AM32 °FPartly sunny.9 mph80%29.77 "HgN/A
10:20 AM32 °FPartly sunny.8 mph80%29.77 "HgN/A
9:50 AM32 °FPartly sunny.9 mph80%29.74 "HgN/A
9:20 AM32 °FSunny.8 mph75%29.74 "Hg10 mi
8:50 AM28 °FSunny.8 mph86%29.74 "Hg10 mi
7:20 AM27 °FClear.2 mph86%29.74 "Hg10 mi
6:50 AM27 °FClear.6 mph93%29.77 "Hg10 mi
6:20 AM27 °FClear.6 mph93%29.77 "Hg10 mi
5:50 AM27 °FPassing clouds.3 mph93%29.77 "HgN/A
5:20 AM27 °FPassing clouds.5 mph93%29.80 "HgN/A
4:50 AM27 °FPassing clouds.3 mph93%29.80 "HgN/A
4:20 AM27 °FClear.2 mph93%29.80 "Hg10 mi
3:50 AM25 °FClear.7 mph93%29.83 "Hg10 mi
3:20 AM27 °FClear.7 mph93%29.83 "Hg10 mi
2:50 AM27 °FClear.7 mph93%29.83 "Hg10 mi
2:20 AM28 °FClear.9 mph86%29.86 "Hg10 mi
Weather by CustomWeather, © 2015

See weather overviewHow to use our weather pages